Time,TemperatureF,DewpointF,PressureIn,WindDirection,WindDirectionDegrees,WindSpeedMPH,WindSpeedGustMPH,Humidity,HourlyPrecipIn,Conditions,Clouds,dailyrainin,SoftwareType,DateUTC
2013-06-03 00:02:00,48.0,32.0,-100.00,ESE,118,3.0,5.0,54,0.00,,,-99.99,,2013-06-03 06:02:00,
2013-06-03 00:22:00,46.0,31.0,-100.00,ESE,120,4.0,5.0,55,0.00,,,-99.99,,2013-06-03 06:22:00,
2013-06-03 00:32:00,45.0,30.0,-100.00,ESE,112,5.0,7.0,55,0.00,,,-99.99,,2013-06-03 06:32:00,
2013-06-03 00:42:00,45.0,30.0,-100.00,ESE,112,5.0,7.0,55,0.00,,,-99.99,,2013-06-03 06:42:00,
2013-06-03 00:52:00,43.0,30.0,-100.00,SE,132,3.0,5.0,61,0.00,,,-99.99,,2013-06-03 06:52:00,
2013-06-03 01:02:00,43.0,32.0,-100.00,SE,126,3.0,5.0,64,0.00,,,-99.99,,2013-06-03 07:02:00,
2013-06-03 01:12:00,43.0,32.0,-100.00,SE,126,3.0,5.0,64,0.00,,,-99.99,,2013-06-03 07:12:00,
2013-06-03 01:22:00,43.0,31.0,-100.00,ESE,117,4.0,6.0,63,0.00,,,-99.99,,2013-06-03 07:22:00,
2013-06-03 01:32:00,43.0,31.0,-100.00,ESE,117,4.0,6.0,63,0.00,,,-99.99,,2013-06-03 07:32:00,
2013-06-03 01:42:00,43.0,31.0,-100.00,ESE,117,4.0,6.0,63,0.00,,,-99.99,,2013-06-03 07:42:00,
2013-06-03 01:52:00,42.0,29.0,-100.00,ESE,122,5.0,6.0,60,0.00,,,-99.99,,2013-06-03 07:52:00,
2013-06-03 02:02:00,42.0,30.0,-100.00,SE,127,4.0,6.0,63,0.00,,,-99.99,,2013-06-03 08:02:00,
2013-06-03 02:12:00,42.0,30.0,-100.00,SE,127,4.0,6.0,63,0.00,,,-99.99,,2013-06-03 08:12:00,
2013-06-03 02:22:00,41.0,31.0,-100.00,SE,137,3.0,4.0,67,0.00,,,-99.99,,2013-06-03 08:22:00,
2013-06-03 02:32:00,41.0,30.0,-100.00,SE,130,5.0,7.0,65,0.00,,,-99.99,,2013-06-03 08:32:00,
2013-06-03 02:42:00,41.0,30.0,-100.00,SE,130,5.0,7.0,65,0.00,,,-99.99,,2013-06-03 08:42:00,
2013-06-03 02:52:00,41.0,29.0,-100.00,SE,126,4.0,6.0,63,0.00,,,-99.99,,2013-06-03 08:52:00,
2013-06-03 03:02:00,40.0,31.0,-100.00,ESE,122,7.0,8.0,71,0.00,,,-99.99,,2013-06-03 09:02:00,
2013-06-03 03:12:00,39.0,29.0,-100.00,ESE,121,5.0,7.0,67,0.00,,,-99.99,,2013-06-03 09:12:00,
2013-06-03 03:22:00,39.0,29.0,-100.00,ESE,121,5.0,7.0,67,0.00,,,-99.99,,2013-06-03 09:22:00,
2013-06-03 03:33:00,40.0,31.0,-100.00,SE,130,6.0,8.0,69,0.00,,,-99.99,,2013-06-03 09:33:00,
2013-06-03 03:42:00,39.0,27.0,-100.00,SE,124,4.0,6.0,63,0.00,,,-99.99,,2013-06-03 09:42:00,
2013-06-03 03:53:00,39.0,27.0,-100.00,SE,124,4.0,6.0,63,0.00,,,-99.99,,2013-06-03 09:53:00,
2013-06-03 04:03:00,40.0,32.0,-100.00,ESE,114,6.0,8.0,74,0.00,,,-99.99,,2013-06-03 10:03:00,
2013-06-03 04:12:00,39.0,29.0,-100.00,ESE,113,6.0,8.0,68,0.00,,,-99.99,,2013-06-03 10:12:00,
2013-06-03 04:22:00,39.0,29.0,-100.00,ESE,113,6.0,8.0,68,0.00,,,-99.99,,2013-06-03 10:22:00,
2013-06-03 04:33:00,39.0,32.0,-100.00,East,97,5.0,8.0,75,0.00,,,-99.99,,2013-06-03 10:33:00,
2013-06-03 04:42:00,39.0,32.0,-100.00,East,97,5.0,8.0,75,0.00,,,-99.99,,2013-06-03 10:42:00,
2013-06-03 04:52:00,39.0,29.0,-100.00,ESE,115,6.0,8.0,67,0.00,,,-99.99,,2013-06-03 10:52:00,
2013-06-03 05:02:00,39.0,30.0,-100.00,ESE,117,6.0,8.0,71,0.00,,,-99.99,,2013-06-03 11:02:00,
2013-06-03 05:12:00,38.0,31.0,-100.00,ESE,103,6.0,8.0,77,0.00,,,-99.99,,2013-06-03 11:12:00,
2013-06-03 05:22:00,38.0,31.0,-100.00,ESE,103,6.0,8.0,77,0.00,,,-99.99,,2013-06-03 11:22:00,
2013-06-03 05:32:00,38.0,31.0,-100.00,SE,124,5.0,7.0,75,0.00,,,-99.99,,2013-06-03 11:32:00,
2013-06-03 05:42:00,38.0,31.0,-100.00,SE,124,5.0,7.0,75,0.00,,,-99.99,,2013-06-03 11:42:00,
2013-06-03 05:52:00,37.0,30.0,-100.00,ESE,120,5.0,7.0,75,0.00,,,-99.99,,2013-06-03 11:52:00,
2013-06-03 06:02:00,37.0,29.0,-100.00,ESE,103,5.0,7.0,74,0.00,,,-99.99,,2013-06-03 12:02:00,
2013-06-03 06:12:00,37.0,29.0,-100.00,ESE,103,5.0,7.0,74,0.00,,,-99.99,,2013-06-03 12:12:00,
2013-06-03 06:22:00,37.0,32.0,-100.00,ESE,109,6.0,8.0,81,0.00,,,-99.99,,2013-06-03 12:22:00,
2013-06-03 06:32:00,37.0,30.0,-100.00,SE,135,5.0,8.0,75,0.00,,,-99.99,,2013-06-03 12:32:00,
2013-06-03 06:42:00,37.0,30.0,-100.00,SE,135,5.0,8.0,75,0.00,,,-99.99,,2013-06-03 12:42:00,
2013-06-03 06:52:00,39.0,30.0,-100.00,East,98,5.0,7.0,71,0.00,,,-99.99,,2013-06-03 12:52:00,
2013-06-03 07:02:00,41.0,32.0,-100.00,ESE,122,5.0,8.0,69,0.00,,,-99.99,,2013-06-03 13:02:00,
2013-06-03 07:12:00,41.0,32.0,-100.00,ESE,122,5.0,8.0,69,0.00,,,-99.99,,2013-06-03 13:12:00,
2013-06-03 07:22:00,44.0,36.0,-100.00,ESE,107,5.0,6.0,73,0.00,,,-99.99,,2013-06-03 13:22:00,
2013-06-03 07:32:00,46.0,36.0,-100.00,ESE,114,5.0,6.0,69,0.00,,,-99.99,,2013-06-03 13:32:00,
2013-06-03 07:42:00,46.0,36.0,-100.00,ESE,114,5.0,6.0,69,0.00,,,-99.99,,2013-06-03 13:42:00,
2013-06-03 07:52:00,46.0,35.0,-100.00,SE,125,4.0,6.0,66,0.00,,,-99.99,,2013-06-03 13:52:00,
2013-06-03 08:02:00,48.0,34.0,-100.00,ESE,123,2.0,4.0,59,0.00,,,-99.99,,2013-06-03 14:02:00,
2013-06-03 08:12:00,48.0,34.0,-100.00,ESE,123,2.0,4.0,59,0.00,,,-99.99,,2013-06-03 14:12:00,
2013-06-03 08:22:00,52.0,36.0,-100.00,SE,124,2.0,3.0,54,0.00,,,-99.99,,2013-06-03 14:22:00,
2013-06-03 08:32:00,52.0,32.0,-100.00,East,99,2.0,6.0,47,0.00,,,-99.99,,2013-06-03 14:32:00,
2013-06-03 08:42:00,52.0,32.0,-100.00,East,99,2.0,6.0,47,0.00,,,-99.99,,2013-06-03 14:42:00,
2013-06-03 08:52:00,49.0,36.0,-100.00,SSE,155,2.0,4.0,61,0.00,,,-99.99,,2013-06-03 14:52:00,
2013-06-03 09:02:00,48.0,31.0,-100.00,SE,138,2.0,5.0,52,0.00,,,-99.99,,2013-06-03 15:02:00,
2013-06-03 09:12:00,48.0,31.0,-100.00,SE,138,2.0,5.0,52,0.00,,,-99.99,,2013-06-03 15:12:00,
2013-06-03 09:22:00,49.0,32.0,-100.00,East,96,2.0,4.0,52,0.00,,,-99.99,,2013-06-03 15:22:00,
2013-06-03 09:33:00,53.0,37.0,-100.00,West,267,2.0,7.0,54,0.00,,,-99.99,,2013-06-03 15:33:00,
2013-06-03 09:43:00,53.0,37.0,-100.00,West,267,2.0,7.0,54,0.00,,,-99.99,,2013-06-03 15:43:00,
2013-06-03 09:53:00,59.0,37.0,-100.00,SW,215,4.0,10.0,43,0.00,,,-99.99,,2013-06-03 15:53:00,
2013-06-03 10:03:00,63.0,37.0,-100.00,WSW,258,4.0,8.0,38,0.00,,,-99.99,,2013-06-03 16:03:00,
2013-06-03 10:12:00,68.0,45.0,-100.00,WSW,240,9.0,14.0,43,0.00,,,-99.99,,2013-06-03 16:12:00,
2013-06-03 10:23:00,68.0,45.0,-100.00,WSW,240,9.0,14.0,43,0.00,,,-99.99,,2013-06-03 16:23:00,
2013-06-03 10:33:00,69.0,43.0,-100.00,WNW,302,8.0,16.0,39,0.00,,,-99.99,,2013-06-03 16:33:00,
2013-06-03 10:42:00,69.0,35.0,-100.00,West,280,10.0,20.0,28,0.00,,,-99.99,,2013-06-03 16:42:00,
2013-06-03 10:53:00,69.0,35.0,-100.00,West,280,10.0,20.0,28,0.00,,,-99.99,,2013-06-03 16:53:00,
2013-06-03 11:02:00,69.0,33.0,-100.00,SW,234,9.0,14.0,26,0.00,,,-99.99,,2013-06-03 17:02:00,
2013-06-03 11:12:00,69.0,33.0,-100.00,SW,234,9.0,14.0,26,0.00,,,-99.99,,2013-06-03 17:12:00,
2013-06-03 11:22:00,69.0,33.0,-100.00,SW,234,9.0,14.0,26,0.00,,,-99.99,,2013-06-03 17:22:00,
2013-06-03 11:33:00,70.0,43.0,-100.00,SW,232,10.0,20.0,38,0.00,,,-99.99,,2013-06-03 17:33:00,
2013-06-03 11:42:00,71.0,40.0,-100.00,WSW,244,9.0,18.0,33,0.00,,,-99.99,,2013-06-03 17:42:00,
2013-06-03 11:52:00,71.0,40.0,-100.00,WSW,244,9.0,18.0,33,0.00,,,-99.99,,2013-06-03 17:52:00,
2013-06-03 12:02:00,71.0,38.0,-100.00,West,261,8.0,18.0,30,0.00,,,-99.99,,2013-06-03 18:02:00,
2013-06-03 12:12:00,71.0,40.0,-100.00,WSW,240,13.0,21.0,32,0.00,,,-99.99,,2013-06-03 18:12:00,
2013-06-03 12:22:00,71.0,40.0,-100.00,WSW,240,13.0,21.0,32,0.00,,,-99.99,,2013-06-03 18:22:00,
2013-06-03 12:32:00,71.0,35.0,-100.00,NNW,346,8.0,14.0,27,0.00,,,-99.99,,2013-06-03 18:32:00,
2013-06-03 12:42:00,71.0,35.0,-100.00,NNW,346,8.0,14.0,27,0.00,,,-99.99,,2013-06-03 18:42:00,
2013-06-03 12:52:00,72.0,44.0,-100.00,West,262,9.0,18.0,37,0.00,,,-99.99,,2013-06-03 18:52:00,
2013-06-03 13:03:00,73.0,34.0,-100.00,SW,235,13.0,28.0,24,0.00,,,-99.99,,2013-06-03 19:03:00,
2013-06-03 13:12:00,73.0,34.0,-100.00,SW,235,13.0,28.0,24,0.00,,,-99.99,,2013-06-03 19:12:00,
2013-06-03 13:22:00,71.0,40.0,-100.00,West,263,11.0,21.0,33,0.00,,,-99.99,,2013-06-03 19:22:00,
2013-06-03 13:32:00,71.0,37.0,-100.00,West,270,12.0,19.0,29,0.00,,,-99.99,,2013-06-03 19:32:00,
2013-06-03 13:42:00,71.0,37.0,-100.00,West,270,12.0,19.0,29,0.00,,,-99.99,,2013-06-03 19:42:00,
2013-06-03 13:52:00,71.0,35.0,-100.00,NW,313,10.0,18.0,27,0.00,,,-99.99,,2013-06-03 19:52:00,
2013-06-03 14:02:00,71.0,42.0,-100.00,WSW,249,11.0,19.0,35,0.00,,,-99.99,,2013-06-03 20:02:00,
2013-06-03 14:12:00,71.0,42.0,-100.00,WSW,249,11.0,19.0,35,0.00,,,-99.99,,2013-06-03 20:12:00,
2013-06-03 14:22:00,72.0,35.0,-100.00,West,264,11.0,25.0,26,0.00,,,-99.99,,2013-06-03 20:22:00,
2013-06-03 14:32:00,70.0,39.0,-100.00,West,271,10.0,16.0,32,0.00,,,-99.99,,2013-06-03 20:32:00,
2013-06-03 14:42:00,70.0,39.0,-100.00,West,271,10.0,16.0,32,0.00,,,-99.99,,2013-06-03 20:42:00,
2013-06-03 14:52:00,67.0,35.0,-100.00,West,276,6.0,12.0,30,0.00,,,-99.99,,2013-06-03 20:52:00,
2013-06-03 15:02:00,66.0,40.0,-100.00,SE,143,4.0,9.0,39,0.00,,,-99.99,,2013-06-03 21:02:00,
2013-06-03 15:12:00,66.0,34.0,-100.00,ESE,121,4.0,12.0,31,0.00,,,-99.99,,2013-06-03 21:12:00,
2013-06-03 15:22:00,66.0,34.0,-100.00,ESE,121,4.0,12.0,31,0.00,,,-99.99,,2013-06-03 21:22:00,
2013-06-03 15:33:00,66.0,40.0,-100.00,WSW,239,6.0,15.0,38,0.00,,,-99.99,,2013-06-03 21:33:00,
2013-06-03 15:43:00,66.0,40.0,-100.00,WSW,239,6.0,15.0,38,0.00,,,-99.99,,2013-06-03 21:43:00,
2013-06-03 15:53:00,72.0,46.0,-100.00,West,259,12.0,19.0,39,0.00,,,-99.99,,2013-06-03 21:53:00,
2013-06-03 16:03:00,72.0,46.0,-100.00,West,259,12.0,19.0,39,0.00,,,-99.99,,2013-06-03 22:03:00,
2013-06-03 16:12:00,72.0,46.0,-100.00,West,259,12.0,19.0,39,0.00,,,-99.99,,2013-06-03 22:12:00,
2013-06-03 16:20:00,68.0,39.0,-100.00,West,265,10.0,16.0,35,0.00,,,-99.99,,2013-06-03 22:20:00,
2013-06-03 16:22:00,72.0,46.0,-100.00,West,259,12.0,19.0,39,0.00,,,-99.99,,2013-06-03 22:22:00,
2013-06-03 16:53:00,68.0,39.0,-100.00,West,265,10.0,16.0,35,0.00,,,-99.99,,2013-06-03 22:53:00,
2013-06-03 17:02:00,68.0,39.0,-100.00,West,265,10.0,16.0,35,0.00,,,-99.99,,2013-06-03 23:02:00,
2013-06-03 17:12:00,68.0,39.0,-100.00,West,265,10.0,16.0,35,0.00,,,-99.99,,2013-06-03 23:12:00,
2013-06-03 17:32:00,69.0,38.0,-100.00,NNW,334,6.0,13.0,32,0.00,,,-99.99,,2013-06-03 23:32:00,
2013-06-03 17:42:00,69.0,38.0,-100.00,NNW,334,6.0,13.0,32,0.00,,,-99.99,,2013-06-03 23:42:00,
2013-06-03 17:52:00,67.0,38.0,-100.00,NW,325,6.0,10.0,35,0.00,,,-99.99,,2013-06-03 23:52:00,
2013-06-03 18:02:00,66.0,38.0,-100.00,NW,323,13.0,24.0,35,0.00,,,-99.99,,2013-06-04 00:02:00,
2013-06-03 18:12:00,66.0,38.0,-100.00,NW,323,13.0,24.0,35,0.00,,,-99.99,,2013-06-04 00:12:00,
2013-06-03 18:22:00,65.0,37.0,-100.00,NNW,330,10.0,16.0,36,0.00,,,-99.99,,2013-06-04 00:22:00,
2013-06-03 18:32:00,65.0,39.0,-100.00,NNW,331,11.0,16.0,38,0.00,,,-99.99,,2013-06-04 00:32:00,
2013-06-03 18:42:00,65.0,39.0,-100.00,NNW,331,11.0,16.0,38,0.00,,,-99.99,,2013-06-04 00:42:00,
2013-06-03 18:52:00,67.0,43.0,-100.00,NW,308,7.0,17.0,41,0.00,,,-99.99,,2013-06-04 00:52:00,
2013-06-03 19:02:00,65.0,39.0,-100.00,NW,306,7.0,13.0,39,0.00,,,-99.99,,2013-06-04 01:02:00,
2013-06-03 19:12:00,65.0,39.0,-100.00,NW,306,7.0,13.0,39,0.00,,,-99.99,,2013-06-04 01:12:00,
2013-06-03 19:22:00,63.0,41.0,-100.00,WNW,287,6.0,10.0,44,0.00,,,-99.99,,2013-06-04 01:22:00,
2013-06-03 19:32:00,62.0,42.0,-100.00,WNW,291,3.0,5.0,47,0.00,,,-99.99,,2013-06-04 01:32:00,
2013-06-03 19:42:00,62.0,42.0,-100.00,WNW,291,3.0,5.0,47,0.00,,,-99.99,,2013-06-04 01:42:00,
2013-06-03 19:52:00,61.0,36.0,-100.00,SW,233,5.0,11.0,40,0.00,,,-99.99,,2013-06-04 01:52:00,
2013-06-03 20:02:00,60.0,40.0,-100.00,SW,222,3.0,6.0,48,0.00,,,-99.99,,2013-06-04 02:02:00,
2013-06-03 20:12:00,58.0,39.0,-100.00,NW,320,3.0,6.0,49,0.00,,,-99.99,,2013-06-04 02:12:00,
2013-06-03 20:22:00,58.0,39.0,-100.00,NW,320,3.0,6.0,49,0.00,,,-99.99,,2013-06-04 02:22:00,
2013-06-03 20:32:00,57.0,34.0,-100.00,NNW,346,1.0,2.0,42,0.00,,,-99.99,,2013-06-04 02:32:00,
2013-06-03 20:42:00,57.0,34.0,-100.00,NNW,346,1.0,2.0,42,0.00,,,-99.99,,2013-06-04 02:42:00,
2013-06-03 20:52:00,55.0,38.0,-100.00,ESE,113,3.0,5.0,52,0.00,,,-99.99,,2013-06-04 02:52:00,
2013-06-03 21:02:00,55.0,38.0,-100.00,ENE,78,2.0,6.0,52,0.00,,,-99.99,,2013-06-04 03:02:00,
2013-06-03 21:12:00,55.0,35.0,-100.00,NNE,22,4.0,6.0,47,0.00,,,-99.99,,2013-06-04 03:12:00,
2013-06-03 21:22:00,55.0,35.0,-100.00,NNE,22,4.0,6.0,47,0.00,,,-99.99,,2013-06-04 03:22:00,
2013-06-03 21:32:00,55.0,36.0,-100.00,North,6,3.0,7.0,49,0.00,,,-99.99,,2013-06-04 03:32:00,
2013-06-03 21:43:00,55.0,36.0,-100.00,North,6,3.0,7.0,49,0.00,,,-99.99,,2013-06-04 03:43:00,
2013-06-03 21:53:00,53.0,33.0,-100.00,NW,315,3.0,6.0,46,0.00,,,-99.99,,2013-06-04 03:53:00,
2013-06-03 22:03:00,50.0,34.0,-100.00,ESE,110,3.0,6.0,53,0.00,,,-99.99,,2013-06-04 04:03:00,
2013-06-03 22:13:00,50.0,34.0,-100.00,ESE,110,3.0,6.0,53,0.00,,,-99.99,,2013-06-04 04:13:00,
2013-06-03 22:23:00,50.0,34.0,-100.00,East,87,5.0,7.0,54,0.00,,,-99.99,,2013-06-04 04:23:00,
2013-06-03 22:33:00,50.0,35.0,-100.00,ESE,106,3.0,6.0,57,0.00,,,-99.99,,2013-06-04 04:33:00,
2013-06-03 22:42:00,50.0,35.0,-100.00,ESE,106,3.0,6.0,57,0.00,,,-99.99,,2013-06-04 04:42:00,
2013-06-03 22:53:00,48.0,33.0,-100.00,ESE,118,2.0,11.0,55,0.00,,,-99.99,,2013-06-04 04:53:00,
2013-06-03 23:02:00,47.0,33.0,-100.00,NE,51,0.0,0.0,57,0.00,,,-99.99,,2013-06-04 05:02:00,
2013-06-03 23:12:00,47.0,33.0,-100.00,NE,51,0.0,0.0,57,0.00,,,-99.99,,2013-06-04 05:12:00,
2013-06-03 23:22:00,46.0,34.0,-100.00,NE,35,1.0,4.0,63,0.00,,,-99.99,,2013-06-04 05:22:00,
2013-06-03 23:32:00,45.0,34.0,-100.00,East,97,1.0,4.0,65,0.00,,,-99.99,,2013-06-04 05:32:00,
2013-06-03 23:42:00,45.0,34.0,-100.00,East,97,1.0,4.0,65,0.00,,,-99.99,,2013-06-04 05:42:00,
2013-06-03 23:52:00,46.0,34.0,-100.00,ESE,116,2.0,3.0,62,0.00,,,-99.99,,2013-06-04 05:52:00,